NKS6059 KJAX-KFLL

Flight info

Callsign NKS6059
Flight time 1h 38m
Altitude 35000
Route EXBOX2 EXBOX PRMUS CUUDA3
Aircraft A21N/M-SDE2E3FGHIRWXY/LB1

Departure

Time 2026-05-03 22:16
Airport Jacksonville International Airport (KJAX)

Arrival

Time 2026-05-03 23:55
Airport Fort Lauderdale Hollywood International Airport (KFLL)
Time Latitude Longitude Altitude Speed Heading
2026-05-03 21:47 30.49282 -81.68612 43 ft 0 kts 102°
2026-05-03 21:57 30.49283 -81.68617 43 ft 2 kts 102°
2026-05-03 21:57 30.49287 -81.68635 43 ft 2 kts 100°
2026-05-03 21:58 30.49289 -81.68654 42 ft 2 kts 94°
2026-05-03 21:58 30.49288 -81.68673 43 ft 2 kts 69°
2026-05-03 21:58 30.49281 -81.68685 40 ft 0 kts 43°
2026-05-03 21:59 30.49273 -81.68693 41 ft 2 kts 32°
2026-05-03 21:59 30.49258 -81.68697 40 ft 2 kts 353°
2026-05-03 21:59 30.49246 -81.68695 42 ft 1 kts 353°
2026-05-03 21:59 30.49244 -81.68695 43 ft 0 kts 353°
2026-05-03 22:01 30.49247 -81.68695 44 ft 3 kts 353°
2026-05-03 22:02 30.49335 -81.68704 42 ft 15 kts 356°
2026-05-03 22:02 30.49385 -81.68753 42 ft 15 kts 278°
2026-05-03 22:02 30.49379 -81.68881 42 ft 16 kts 264°
2026-05-03 22:02 30.49354 -81.68984 41 ft 11 kts 217°
2026-05-03 22:03 30.49264 -81.69011 42 ft 20 kts 190°
2026-05-03 22:03 30.49109 -81.69053 40 ft 22 kts 217°
2026-05-03 22:03 30.49011 -81.69187 42 ft 21 kts 230°
2026-05-03 22:03 30.48920 -81.69324 39 ft 21 kts 240°
2026-05-03 22:04 30.48954 -81.69436 39 ft 14 kts 311°
2026-05-03 22:04 30.49035 -81.69545 39 ft 25 kts 310°
2026-05-03 22:04 30.49145 -81.69694 41 ft 24 kts 311°
2026-05-03 22:04 30.49257 -81.69843 41 ft 24 kts 311°
2026-05-03 22:05 30.49314 -81.69958 39 ft 8 kts 251°
2026-05-03 22:05 30.49287 -81.69999 39 ft 5 kts 220°
2026-05-03 22:05 30.49285 -81.70000 39 ft 0 kts 220°
2026-05-03 22:07 30.49256 -81.70028 37 ft 11 kts 220°
2026-05-03 22:07 30.49205 -81.70046 40 ft 6 kts 157°
2026-05-03 22:07 30.49162 -81.70010 42 ft 7 kts 136°
2026-05-03 22:07 30.49150 -81.69994 42 ft 0 kts 130°
2026-05-03 22:08 30.49142 -81.69983 42 ft 11 kts 130°
2026-05-03 22:08 30.48946 -81.69717 43 ft 76 kts 130°
2026-05-03 22:08 30.48469 -81.69072 43 ft 128 kts 127°
2026-05-03 22:08 30.48262 -81.68499 38 ft 54 kts 134°
2026-05-03 22:09 30.48194 -81.68411 34 ft 0 kts 131°
2026-05-03 22:10 30.48195 -81.68407 34 ft 1 kts 81°
2026-05-03 22:10 30.48203 -81.68407 35 ft 1 kts 342°
2026-05-03 22:10 30.48231 -81.68459 35 ft 12 kts 313°
2026-05-03 22:10 30.48234 -81.68463 35 ft 0 kts 313°
2026-05-03 22:12 30.48248 -81.68483 37 ft 17 kts 302°
2026-05-03 22:12 30.48327 -81.68596 39 ft 30 kts 313°
2026-05-03 22:12 30.48471 -81.68781 40 ft 30 kts 313°
2026-05-03 22:13 30.48604 -81.68962 37 ft 29 kts 308°
2026-05-03 22:13 30.48735 -81.69135 36 ft 27 kts 301°
2026-05-03 22:13 30.48842 -81.69283 38 ft 20 kts 312°
2026-05-03 22:13 30.48928 -81.69401 39 ft 19 kts 310°
2026-05-03 22:14 30.49104 -81.69637 42 ft 46 kts 310°
2026-05-03 22:14 30.49296 -81.69892 41 ft 37 kts 307°
2026-05-03 22:14 30.49307 -81.69980 39 ft 5 kts 219°
2026-05-03 22:14 30.49283 -81.70004 37 ft 2 kts 219°
2026-05-03 22:15 30.49276 -81.70010 39 ft 0 kts 219°
2026-05-03 22:15 30.49241 -81.70042 39 ft 25 kts 217°
2026-05-03 22:15 30.49180 -81.70044 41 ft 8 kts 129°
2026-05-03 22:15 30.49061 -81.69879 42 ft 48 kts 130°
2026-05-03 22:16 30.48706 -81.69394 35 ft 109 kts 130°
2026-05-03 22:16 30.48120 -81.68588 110 ft 146 kts 127°
2026-05-03 22:16 30.47450 -81.67641 417 ft 157 kts 126°
2026-05-03 22:16 30.46751 -81.66621 717 ft 174 kts 128°
2026-05-03 22:17 30.45880 -81.65523 976 ft 193 kts 131°
2026-05-03 22:17 30.44919 -81.64387 1403 ft 201 kts 133°
2026-05-03 22:17 30.43927 -81.63232 1983 ft 202 kts 133°
2026-05-03 22:17 30.42922 -81.62076 2596 ft 204 kts 133°
2026-05-03 22:18 30.41916 -81.60923 2930 ft 203 kts 133°
2026-05-03 22:18 30.40913 -81.59778 2989 ft 203 kts 133°
2026-05-03 22:18 30.39900 -81.58621 3028 ft 204 kts 133°
2026-05-03 22:18 30.38910 -81.57433 3427 ft 206 kts 130°
2026-05-03 22:19 30.37824 -81.56346 4183 ft 208 kts 146°
2026-05-03 22:19 30.36598 -81.55416 4890 ft 213 kts 147°
2026-05-03 22:19 30.35342 -81.54475 5541 ft 217 kts 147°
2026-05-03 22:19 30.34081 -81.53512 6160 ft 222 kts 147°
2026-05-03 22:20 30.32784 -81.52504 6763 ft 228 kts 148°
2026-05-03 22:20 30.31452 -81.51458 7341 ft 232 kts 148°
2026-05-03 22:20 30.30117 -81.50400 7965 ft 234 kts 148°
2026-05-03 22:20 30.28770 -81.49330 8561 ft 235 kts 148°
2026-05-03 22:21 30.27414 -81.48252 9150 ft 238 kts 148°
2026-05-03 22:21 30.26042 -81.47161 9738 ft 240 kts 148°
2026-05-03 22:21 30.24655 -81.46057 10267 ft 243 kts 149°
2026-05-03 22:21 30.23252 -81.44941 10761 ft 246 kts 149°
2026-05-03 22:22 30.21831 -81.43810 11254 ft 249 kts 150°
2026-05-03 22:22 30.20396 -81.42669 11750 ft 251 kts 150°
2026-05-03 22:22 30.18965 -81.41531 12239 ft 253 kts 151°
2026-05-03 22:22 30.17505 -81.40371 12718 ft 256 kts 152°
2026-05-03 22:23 30.16029 -81.39199 13208 ft 259 kts 152°
2026-05-03 22:23 30.14537 -81.38013 13695 ft 261 kts 153°
2026-05-03 22:23 30.13033 -81.36820 14140 ft 263 kts 153°
2026-05-03 22:23 30.11521 -81.35619 14579 ft 265 kts 153°
2026-05-03 22:24 30.10004 -81.34414 15050 ft 263 kts 154°
2026-05-03 22:24 30.08515 -81.33231 15513 ft 263 kts 154°
2026-05-03 22:24 30.07001 -81.32032 15920 ft 265 kts 154°
2026-05-03 22:24 30.05473 -81.30822 16333 ft 267 kts 154°
2026-05-03 22:25 30.03938 -81.29607 16754 ft 268 kts 154°
2026-05-03 22:25 30.02390 -81.28381 17170 ft 270 kts 154°
2026-05-03 22:25 30.01363 -81.27569 17383 ft 274 kts 154°
2026-05-03 22:25 29.99750 -81.26300 17529 ft 288 kts 154°
2026-05-03 22:26 29.97435 -81.24487 17685 ft 317 kts 153°
2026-05-03 22:26 29.95561 -81.23011 17995 ft 333 kts 153°
2026-05-03 22:26 29.94258 -81.21979 18364 ft 339 kts 153°
2026-05-03 22:26 29.92302 -81.20427 18897 ft 343 kts 153°
2026-05-03 22:27 29.90324 -81.18858 19484 ft 347 kts 153°
2026-05-03 22:27 29.88325 -81.17278 20063 ft 350 kts 154°
2026-05-03 22:27 29.86328 -81.15727 20623 ft 353 kts 154°
2026-05-03 22:27 29.84282 -81.14148 21194 ft 356 kts 155°
2026-05-03 22:28 29.82192 -81.12614 21762 ft 355 kts 159°
2026-05-03 22:28 29.79988 -81.11348 22308 ft 352 kts 165°
2026-05-03 22:28 29.77737 -81.10219 22891 ft 354 kts 166°
2026-05-03 22:28 29.75452 -81.09104 23466 ft 357 kts 167°
2026-05-03 22:29 29.73162 -81.07988 23947 ft 360 kts 167°
2026-05-03 22:29 29.70844 -81.06857 24421 ft 362 kts 167°
2026-05-03 22:29 29.68517 -81.05719 24882 ft 363 kts 167°
2026-05-03 22:29 29.66188 -81.04579 25346 ft 365 kts 167°
2026-05-03 22:30 29.63850 -81.03435 25795 ft 367 kts 167°
2026-05-03 22:30 29.61518 -81.02295 26061 ft 369 kts 167°
2026-05-03 22:30 29.59158 -81.01140 26111 ft 369 kts 167°
2026-05-03 22:30 29.56792 -80.99981 26114 ft 369 kts 167°
2026-05-03 22:31 29.54428 -80.98826 26112 ft 369 kts 167°
2026-05-03 22:31 29.52058 -80.97668 26110 ft 369 kts 167°
2026-05-03 22:31 29.49696 -80.96515 26108 ft 369 kts 167°
2026-05-03 22:31 29.47337 -80.95363 26112 ft 369 kts 167°
2026-05-03 22:32 29.44972 -80.94210 26110 ft 368 kts 167°
2026-05-03 22:32 29.42637 -80.93071 26099 ft 368 kts 167°
2026-05-03 22:32 29.40249 -80.91909 26103 ft 368 kts 167°
2026-05-03 22:32 29.37885 -80.90758 26093 ft 368 kts 167°
2026-05-03 22:33 29.35545 -80.89619 26100 ft 368 kts 167°
2026-05-03 22:33 29.33185 -80.88470 26104 ft 367 kts 167°
2026-05-03 22:33 29.30832 -80.87326 26102 ft 367 kts 167°
2026-05-03 22:33 29.28457 -80.86176 26106 ft 376 kts 167°
2026-05-03 22:34 29.25994 -80.84992 26096 ft 391 kts 167°
2026-05-03 22:34 29.23438 -80.83760 26097 ft 406 kts 166°
2026-05-03 22:34 29.20815 -80.82492 26077 ft 420 kts 166°
2026-05-03 22:34 29.18112 -80.81183 26093 ft 432 kts 166°
2026-05-03 22:35 29.15295 -80.79817 26092 ft 445 kts 166°
2026-05-03 22:35 29.12403 -80.78415 26092 ft 457 kts 165°
2026-05-03 22:35 29.09445 -80.76982 26091 ft 466 kts 165°
2026-05-03 22:35 29.06448 -80.75527 26092 ft 468 kts 165°
2026-05-03 22:36 29.03438 -80.74065 26092 ft 469 kts 165°
2026-05-03 22:36 29.00435 -80.72613 26092 ft 468 kts 166°
2026-05-03 22:36 28.97435 -80.71188 26092 ft 467 kts 167°
2026-05-03 22:36 28.94407 -80.69816 26092 ft 466 kts 167°
2026-05-03 22:37 28.91379 -80.68471 26071 ft 466 kts 168°
2026-05-03 22:37 28.88395 -80.67145 26086 ft 466 kts 168°
2026-05-03 22:37 28.85366 -80.65797 26089 ft 466 kts 167°
2026-05-03 22:37 28.82344 -80.64450 26072 ft 466 kts 167°
2026-05-03 22:38 28.79321 -80.63101 26072 ft 466 kts 167°
2026-05-03 22:38 28.76294 -80.61750 26075 ft 466 kts 167°
2026-05-03 22:38 28.73270 -80.60401 26068 ft 466 kts 167°
2026-05-03 22:38 28.70242 -80.59051 26061 ft 466 kts 167°
2026-05-03 22:39 28.67224 -80.57706 26050 ft 466 kts 167°
2026-05-03 22:39 28.64234 -80.56374 26044 ft 466 kts 167°
2026-05-03 22:39 28.61216 -80.55030 26036 ft 466 kts 167°
2026-05-03 22:39 28.58190 -80.53684 26021 ft 466 kts 167°
2026-05-03 22:40 28.55166 -80.52340 26035 ft 466 kts 167°
2026-05-03 22:40 28.52139 -80.50995 26036 ft 466 kts 167°
2026-05-03 22:40 28.49119 -80.49654 26036 ft 466 kts 167°
2026-05-03 22:40 28.46098 -80.48313 26036 ft 466 kts 167°
2026-05-03 22:41 28.43071 -80.46970 26035 ft 466 kts 167°
2026-05-03 22:41 28.40041 -80.45627 26037 ft 466 kts 167°
2026-05-03 22:41 28.37019 -80.44289 26039 ft 466 kts 167°
2026-05-03 22:41 28.34026 -80.42964 26039 ft 466 kts 167°
2026-05-03 22:42 28.31000 -80.41625 26024 ft 466 kts 167°
2026-05-03 22:42 28.27973 -80.40287 26042 ft 467 kts 168°
2026-05-03 22:42 28.24940 -80.38946 26042 ft 467 kts 167°
2026-05-03 22:42 28.21901 -80.37604 26042 ft 467 kts 167°
2026-05-03 22:43 28.18866 -80.36264 26048 ft 467 kts 168°
2026-05-03 22:43 28.15865 -80.34940 26048 ft 467 kts 168°
2026-05-03 22:43 28.12824 -80.33600 26050 ft 467 kts 168°
2026-05-03 22:43 28.09784 -80.32269 26060 ft 466 kts 168°
2026-05-03 22:44 28.06733 -80.31033 26058 ft 465 kts 169°
2026-05-03 22:44 28.03676 -80.29837 26058 ft 465 kts 170°
2026-05-03 22:44 28.00613 -80.28645 26048 ft 465 kts 170°
2026-05-03 22:44 27.97547 -80.27452 26059 ft 466 kts 170°
2026-05-03 22:45 27.94517 -80.26271 26059 ft 467 kts 170°
2026-05-03 22:45 27.91449 -80.25075 26060 ft 467 kts 170°
2026-05-03 22:45 27.88375 -80.23876 26060 ft 467 kts 170°
2026-05-03 22:45 27.85294 -80.22674 26061 ft 467 kts 170°
2026-05-03 22:46 27.82218 -80.21475 26060 ft 467 kts 170°
2026-05-03 22:46 27.79146 -80.20279 26061 ft 467 kts 170°
2026-05-03 22:46 27.76073 -80.19083 26061 ft 467 kts 170°
2026-05-03 22:46 27.73002 -80.17888 26061 ft 467 kts 170°
2026-05-03 22:47 27.69926 -80.16692 26048 ft 467 kts 170°
2026-05-03 22:47 27.66848 -80.15497 26051 ft 467 kts 170°
2026-05-03 22:47 27.63822 -80.14322 26052 ft 467 kts 170°
2026-05-03 22:47 27.60746 -80.13100 26047 ft 469 kts 169°
2026-05-03 22:48 27.57679 -80.11840 26049 ft 469 kts 168°
2026-05-03 22:48 27.54609 -80.10571 26049 ft 469 kts 168°
2026-05-03 22:48 27.51547 -80.09306 26049 ft 469 kts 168°
2026-05-03 22:48 27.48476 -80.08040 26048 ft 469 kts 168°
2026-05-03 22:49 27.45417 -80.06780 26047 ft 469 kts 168°
2026-05-03 22:49 27.42349 -80.05517 26045 ft 469 kts 168°
2026-05-03 22:49 27.39280 -80.04258 26040 ft 468 kts 169°
2026-05-03 22:49 27.36236 -80.03187 25636 ft 460 kts 173°
2026-05-03 22:50 27.33159 -80.02237 24975 ft 456 kts 173°
2026-05-03 22:50 27.30103 -80.01317 24351 ft 453 kts 173°
2026-05-03 22:50 27.27062 -80.00400 23757 ft 450 kts 173°
2026-05-03 22:50 27.24062 -79.99409 23080 ft 449 kts 171°
2026-05-03 22:51 27.21097 -79.98349 22394 ft 446 kts 170°
2026-05-03 22:51 27.18139 -79.97277 21731 ft 443 kts 170°
2026-05-03 22:51 27.15214 -79.96216 21081 ft 439 kts 170°
2026-05-03 22:51 27.12306 -79.95164 20493 ft 435 kts 170°
2026-05-03 22:52 27.09472 -79.94141 19980 ft 431 kts 169°
2026-05-03 22:52 27.06649 -79.93100 19517 ft 424 kts 168°
2026-05-03 22:52 27.03876 -79.91998 19059 ft 418 kts 167°
2026-05-03 22:52 27.01157 -79.90898 18604 ft 411 kts 167°
2026-05-03 22:53 26.98480 -79.89813 18127 ft 405 kts 167°
2026-05-03 22:53 26.95842 -79.88747 17624 ft 400 kts 167°
2026-05-03 22:53 26.93273 -79.87711 17126 ft 395 kts 167°
2026-05-03 22:53 26.90700 -79.86674 16627 ft 390 kts 167°
2026-05-03 22:54 26.88161 -79.85651 16133 ft 386 kts 167°
2026-05-03 22:54 26.85643 -79.84638 15658 ft 381 kts 167°
2026-05-03 22:54 26.83166 -79.83641 15185 ft 377 kts 166°
2026-05-03 22:54 26.80712 -79.82654 14717 ft 372 kts 166°
2026-05-03 22:55 26.78291 -79.81681 14272 ft 368 kts 166°
2026-05-03 22:55 26.75913 -79.80723 14076 ft 356 kts 166°
2026-05-03 22:55 26.73636 -79.79804 14039 ft 341 kts 167°
2026-05-03 22:55 26.71440 -79.78922 14036 ft 338 kts 167°
2026-05-03 22:56 26.69181 -79.78318 14049 ft 328 kts 181°
2026-05-03 22:56 26.66902 -79.78250 14028 ft 328 kts 182°
2026-05-03 22:56 26.64673 -79.77556 14038 ft 342 kts 158°
2026-05-03 22:56 26.62806 -79.75841 14038 ft 355 kts 133°
2026-05-03 22:57 26.61698 -79.73392 14039 ft 364 kts 108°
2026-05-03 22:57 26.61537 -79.70570 14029 ft 369 kts 83°
2026-05-03 22:57 26.62384 -79.67883 14041 ft 368 kts 57°
2026-05-03 22:57 26.64095 -79.65796 14032 ft 362 kts 32°
2026-05-03 22:58 26.66323 -79.64561 14047 ft 356 kts 17°
2026-05-03 22:58 26.68664 -79.63645 14034 ft 356 kts 15°
2026-05-03 22:58 26.71008 -79.62731 14034 ft 356 kts 16°
2026-05-03 22:58 26.73340 -79.61784 14034 ft 356 kts 17°
2026-05-03 22:59 26.75669 -79.60820 14034 ft 356 kts 17°
2026-05-03 22:59 26.77989 -79.59839 14032 ft 357 kts 18°
2026-05-03 22:59 26.80311 -79.58845 14042 ft 356 kts 18°
2026-05-03 22:59 26.82619 -79.57832 14037 ft 356 kts 17°
2026-05-03 23:00 26.84895 -79.56851 14032 ft 355 kts 17°
2026-05-03 23:00 26.87211 -79.55877 14037 ft 356 kts 17°
2026-05-03 23:00 26.89535 -79.54883 14036 ft 356 kts 17°
2026-05-03 23:00 26.91842 -79.53879 14041 ft 356 kts 18°
2026-05-03 23:01 26.94146 -79.52862 14031 ft 355 kts 18°
2026-05-03 23:01 26.96465 -79.51898 14023 ft 355 kts 17°
2026-05-03 23:01 26.98773 -79.50913 14025 ft 355 kts 17°
2026-05-03 23:01 27.01083 -79.49911 14028 ft 355 kts 17°
2026-05-03 23:02 27.03394 -79.48906 14026 ft 355 kts 17°
2026-05-03 23:02 27.05700 -79.47904 14027 ft 355 kts 17°
2026-05-03 23:02 27.07989 -79.46921 14053 ft 355 kts 17°
2026-05-03 23:02 27.10342 -79.46133 14030 ft 350 kts
2026-05-03 23:03 27.12732 -79.46168 14034 ft 339 kts 343°
2026-05-03 23:03 27.14890 -79.47087 14032 ft 327 kts 323°
2026-05-03 23:03 27.16551 -79.48751 14033 ft 316 kts 303°
2026-05-03 23:03 27.17543 -79.50871 14029 ft 308 kts 284°
2026-05-03 23:04 27.17804 -79.53236 14032 ft 305 kts 266°
2026-05-03 23:04 27.17357 -79.55552 14033 ft 305 kts 249°
2026-05-03 23:04 27.16256 -79.57582 14029 ft 308 kts 232°
2026-05-03 23:04 27.14581 -79.59105 14033 ft 314 kts 214°
2026-05-03 23:05 27.12584 -79.60126 14033 ft 317 kts 207°
2026-05-03 23:05 27.10518 -79.61009 14031 ft 317 kts 206°
2026-05-03 23:05 27.08453 -79.61873 14014 ft 317 kts 206°
2026-05-03 23:05 27.06410 -79.62735 14025 ft 318 kts 206°
2026-05-03 23:06 27.04341 -79.63616 14030 ft 318 kts 206°
2026-05-03 23:06 27.02271 -79.64501 14027 ft 319 kts 206°
2026-05-03 23:06 27.00201 -79.65389 14030 ft 319 kts 206°
2026-05-03 23:06 26.98125 -79.66281 14028 ft 318 kts 206°
2026-05-03 23:07 26.96057 -79.67171 14024 ft 318 kts 206°
2026-05-03 23:07 26.93984 -79.68062 14032 ft 319 kts 206°
2026-05-03 23:07 26.91919 -79.68950 14028 ft 318 kts 206°
2026-05-03 23:07 26.89852 -79.69839 14030 ft 318 kts 206°
2026-05-03 23:08 26.87783 -79.70729 14025 ft 318 kts 206°
2026-05-03 23:08 26.85713 -79.71618 13918 ft 317 kts 206°
2026-05-03 23:08 26.83657 -79.72500 13785 ft 316 kts 206°
2026-05-03 23:08 26.81592 -79.73388 13988 ft 319 kts 206°
2026-05-03 23:09 26.79516 -79.74280 14022 ft 318 kts 206°
2026-05-03 23:09 26.77472 -79.75157 14031 ft 318 kts 206°
2026-05-03 23:09 26.75404 -79.76044 14042 ft 318 kts 206°
2026-05-03 23:09 26.73334 -79.76931 14038 ft 318 kts 206°
2026-05-03 23:10 26.71267 -79.77817 14035 ft 318 kts 206°
2026-05-03 23:10 26.69317 -79.78870 14036 ft 314 kts 214°
2026-05-03 23:10 26.67574 -79.80295 14030 ft 310 kts 221°
2026-05-03 23:10 26.65628 -79.81391 14039 ft 321 kts 198°
2026-05-03 23:11 26.63458 -79.81431 14038 ft 334 kts 174°
2026-05-03 23:11 26.61299 -79.80360 14038 ft 348 kts 149°
2026-05-03 23:11 26.59672 -79.78319 14030 ft 360 kts 123°
2026-05-03 23:11 26.58891 -79.75657 14037 ft 367 kts 98°
2026-05-03 23:12 26.59112 -79.72826 14033 ft 369 kts 73°
2026-05-03 23:12 26.59808 -79.71090 14039 ft 368 kts 57°
2026-05-03 23:12 26.61545 -79.69035 14033 ft 363 kts 31°
2026-05-03 23:12 26.63807 -79.67947 14029 ft 352 kts
2026-05-03 23:13 26.66041 -79.67942 14039 ft 340 kts 343°
2026-05-03 23:13 26.68131 -79.68937 14044 ft 328 kts 322°
2026-05-03 23:13 26.69745 -79.70661 14028 ft 318 kts 301°
2026-05-03 23:13 26.70626 -79.72890 14031 ft 311 kts 280°
2026-05-03 23:14 26.70690 -79.75278 14035 ft 307 kts 258°
2026-05-03 23:14 26.69786 -79.77411 14035 ft 307 kts 232°
2026-05-03 23:14 26.68119 -79.78857 13647 ft 313 kts 208°
2026-05-03 23:14 26.66070 -79.79720 13141 ft 315 kts 203°
2026-05-03 23:15 26.63988 -79.80512 12650 ft 314 kts 204°
2026-05-03 23:15 26.61943 -79.81343 12188 ft 312 kts 205°
2026-05-03 23:15 26.59923 -79.82215 11742 ft 310 kts 205°
2026-05-03 23:15 26.57920 -79.83113 11299 ft 308 kts 206°
2026-05-03 23:16 26.55948 -79.84016 11071 ft 305 kts 206°
2026-05-03 23:16 26.54011 -79.84915 11042 ft 306 kts 206°
2026-05-03 23:16 26.52041 -79.85835 11040 ft 306 kts 206°
2026-05-03 23:16 26.50078 -79.86754 11029 ft 306 kts 206°
2026-05-03 23:17 26.48117 -79.87673 11034 ft 300 kts 206°
2026-05-03 23:17 26.46228 -79.88555 10894 ft 286 kts 206°
2026-05-03 23:17 26.44437 -79.89391 10707 ft 271 kts 207°
2026-05-03 23:17 26.42766 -79.90173 10536 ft 257 kts 207°
2026-05-03 23:18 26.41139 -79.90936 10252 ft 249 kts 207°
2026-05-03 23:18 26.39548 -79.91685 9887 ft 246 kts 207°
2026-05-03 23:18 26.38008 -79.92492 9434 ft 243 kts 212°
2026-05-03 23:18 26.36549 -79.93396 9012 ft 241 kts 213°
2026-05-03 23:19 26.35094 -79.94331 8589 ft 240 kts 213°
2026-05-03 23:19 26.33655 -79.95260 8194 ft 238 kts 213°
2026-05-03 23:19 26.32241 -79.96171 8017 ft 229 kts 213°
2026-05-03 23:19 26.30873 -79.97049 8011 ft 226 kts 213°
2026-05-03 23:20 26.29524 -79.97918 8009 ft 226 kts 213°
2026-05-03 23:20 26.28160 -79.98795 8010 ft 225 kts 213°
2026-05-03 23:20 26.26822 -79.99652 8008 ft 218 kts 214°
2026-05-03 23:20 26.25515 -80.00492 8012 ft 216 kts 214°
2026-05-03 23:21 26.24215 -80.01328 8014 ft 216 kts 214°
2026-05-03 23:21 26.22916 -80.02164 8015 ft 216 kts 214°
2026-05-03 23:21 26.21631 -80.03036 7812 ft 218 kts 217°
2026-05-03 23:21 26.20417 -80.04042 7537 ft 215 kts 223°
2026-05-03 23:22 26.18414 -80.06381 7067 ft 205 kts 235°
2026-05-03 23:22 26.17614 -80.07701 6742 ft 203 kts 241°
2026-05-03 23:22 26.16965 -80.09081 6318 ft 204 kts 247°
2026-05-03 23:23 26.16442 -80.10558 6049 ft 204 kts 251°
2026-05-03 23:23 26.15986 -80.12056 6004 ft 205 kts 252°
2026-05-03 23:23 26.15579 -80.13574 6002 ft 205 kts 255°
2026-05-03 23:23 26.15273 -80.15124 5999 ft 205 kts 260°
2026-05-03 23:24 26.15088 -80.16695 6002 ft 204 kts 264°
2026-05-03 23:24 26.15025 -80.18277 6003 ft 206 kts 268°
2026-05-03 23:24 26.15024 -80.19871 6002 ft 206 kts 269°
2026-05-03 23:24 26.15035 -80.21468 6001 ft 206 kts 269°
2026-05-03 23:25 26.15046 -80.23045 6001 ft 206 kts 269°
2026-05-03 23:25 26.15057 -80.24664 6002 ft 206 kts 269°
2026-05-03 23:25 26.15065 -80.26243 6006 ft 206 kts 269°
2026-05-03 23:25 26.15073 -80.27834 6003 ft 206 kts 269°
2026-05-03 23:26 26.15080 -80.29433 5999 ft 207 kts 269°
2026-05-03 23:26 26.15087 -80.31026 6001 ft 205 kts 269°
2026-05-03 23:26 26.15093 -80.32607 6006 ft 204 kts 269°
2026-05-03 23:26 26.15090 -80.34199 6007 ft 206 kts 268°
2026-05-03 23:27 26.15065 -80.35797 6007 ft 207 kts 268°
2026-05-03 23:27 26.15034 -80.37374 6005 ft 206 kts 268°
2026-05-03 23:27 26.14999 -80.38964 6007 ft 205 kts 267°
2026-05-03 23:27 26.14964 -80.40518 6008 ft 197 kts 267°
2026-05-03 23:28 26.14929 -80.42009 6005 ft 187 kts 267°
2026-05-03 23:28 26.14894 -80.43445 6009 ft 184 kts 267°
2026-05-03 23:28 26.14859 -80.44867 6009 ft 184 kts 267°
2026-05-03 23:28 26.14824 -80.46293 6008 ft 185 kts 267°
2026-05-03 23:29 26.14790 -80.47718 6008 ft 183 kts 267°
2026-05-03 23:29 26.14735 -80.49134 5922 ft 183 kts 261°
2026-05-03 23:29 26.14163 -80.50357 5529 ft 185 kts 222°
2026-05-03 23:29 26.12993 -80.50876 5198 ft 187 kts 183°
2026-05-03 23:30 26.11730 -80.50517 4869 ft 190 kts 158°
2026-05-03 23:30 26.10570 -80.49827 4539 ft 188 kts 153°
2026-05-03 23:30 26.09615 -80.48849 4197 ft 188 kts 129°
2026-05-03 23:30 26.08885 -80.47632 3767 ft 191 kts 124°
2026-05-03 23:31 26.08246 -80.46325 3338 ft 194 kts 112°
2026-05-03 23:31 26.07930 -80.44868 3059 ft 194 kts 97°
2026-05-03 23:31 26.07864 -80.43376 3000 ft 195 kts 91°
2026-05-03 23:31 26.07856 -80.41865 2996 ft 194 kts 90°
2026-05-03 23:32 26.07850 -80.40357 3000 ft 194 kts 90°
2026-05-03 23:32 26.07837 -80.38880 2995 ft 194 kts 91°
2026-05-03 23:32 26.07818 -80.37387 3012 ft 192 kts 91°
2026-05-03 23:32 26.07802 -80.35902 2989 ft 194 kts 90°
2026-05-03 23:33 26.07792 -80.34377 2980 ft 198 kts 90°
2026-05-03 23:33 26.07785 -80.32848 2851 ft 196 kts 90°
2026-05-03 23:33 26.07781 -80.31336 2592 ft 195 kts 90°
2026-05-03 23:33 26.07768 -80.29838 2312 ft 193 kts 90°
2026-05-03 23:34 26.07760 -80.28381 2056 ft 189 kts 90°
2026-05-03 23:34 26.07752 -80.26921 1808 ft 188 kts 89°
2026-05-03 23:34 26.07744 -80.25486 1564 ft 187 kts 89°
2026-05-03 23:34 26.07736 -80.24017 1315 ft 186 kts 88°
2026-05-03 23:35 26.07728 -80.22577 1068 ft 186 kts 88°
2026-05-03 23:35 26.07720 -80.21145 820 ft 181 kts 88°
2026-05-03 23:35 26.07712 -80.19772 617 ft 174 kts 87°
2026-05-03 23:35 26.07704 -80.18476 416 ft 169 kts 89°
2026-05-03 23:36 26.07687 -80.17219 217 ft 159 kts 87°
2026-05-03 23:36 26.07677 -80.15898 523 ft 180 kts 88°
2026-05-03 23:36 26.07662 -80.14475 1063 ft 183 kts 88°
2026-05-03 23:36 26.07659 -80.13010 1640 ft 198 kts 88°
2026-05-03 23:37 26.07666 -80.11378 1929 ft 226 kts 89°
2026-05-03 23:37 26.07677 -80.09557 1976 ft 238 kts 88°
2026-05-03 23:37 26.07693 -80.07766 1992 ft 227 kts 88°
2026-05-03 23:37 26.07712 -80.06026 1995 ft 223 kts 88°
2026-05-03 23:38 26.07731 -80.04298 1995 ft 223 kts 89°
2026-05-03 23:38 26.07684 -80.02570 1987 ft 224 kts 101°
2026-05-03 23:38 26.07162 -80.01300 2018 ft 225 kts 130°
2026-05-03 23:38 26.06025 -80.00389 2393 ft 231 kts 160°
2026-05-03 23:39 26.04486 -79.99941 3119 ft 226 kts 171°
2026-05-03 23:39 26.03039 -79.99652 3683 ft 224 kts 172°
2026-05-03 23:39 26.01495 -79.99382 3957 ft 224 kts 178°
2026-05-03 23:39 25.99977 -79.99567 3996 ft 219 kts 206°
2026-05-03 23:40 25.98836 -80.00614 4003 ft 213 kts 240°
2026-05-03 23:40 25.98334 -80.02152 4006 ft 214 kts 259°
2026-05-03 23:40 25.98092 -80.03791 4003 ft 216 kts 262°
2026-05-03 23:40 25.97895 -80.05452 4003 ft 216 kts 262°
2026-05-03 23:41 25.97706 -80.07110 4004 ft 217 kts 263°
2026-05-03 23:41 25.97516 -80.08750 4001 ft 217 kts 263°
2026-05-03 23:41 25.97319 -80.10419 4005 ft 217 kts 263°
2026-05-03 23:41 25.97124 -80.12076 4002 ft 217 kts 263°
2026-05-03 23:42 25.96932 -80.13740 4004 ft 217 kts 263°
2026-05-03 23:42 25.96740 -80.15407 4003 ft 217 kts 262°
2026-05-03 23:42 25.96549 -80.17073 4007 ft 217 kts 262°
2026-05-03 23:42 25.96359 -80.18742 3999 ft 218 kts 263°
2026-05-03 23:43 25.96172 -80.20394 4000 ft 218 kts 263°
2026-05-03 23:43 25.95983 -80.22062 4002 ft 218 kts 263°
2026-05-03 23:43 25.95809 -80.23731 4000 ft 217 kts 266°
2026-05-03 23:43 25.95910 -80.25403 4006 ft 218 kts 279°
2026-05-03 23:44 25.96239 -80.27048 4002 ft 218 kts 282°
2026-05-03 23:44 25.96614 -80.28680 4001 ft 218 kts 282°
2026-05-03 23:44 25.96994 -80.30313 4003 ft 219 kts 282°
2026-05-03 23:44 25.97373 -80.31955 4002 ft 219 kts 282°
2026-05-03 23:45 25.97754 -80.33596 4001 ft 218 kts 282°
2026-05-03 23:45 25.98129 -80.35227 4002 ft 217 kts 282°
2026-05-03 23:45 25.98506 -80.36862 4003 ft 218 kts 282°
2026-05-03 23:45 25.98877 -80.38475 4007 ft 218 kts 282°
2026-05-03 23:46 25.99249 -80.40109 4005 ft 218 kts 283°
2026-05-03 23:46 25.99616 -80.41738 3999 ft 213 kts 283°
2026-05-03 23:46 25.99971 -80.43318 4006 ft 209 kts 283°
2026-05-03 23:46 26.00317 -80.44902 4011 ft 211 kts 282°
2026-05-03 23:47 26.00671 -80.46483 4004 ft 210 kts 283°
2026-05-03 23:47 26.01024 -80.48055 3999 ft 209 kts 283°
2026-05-03 23:47 26.01377 -80.49622 4005 ft 209 kts 283°
2026-05-03 23:47 26.01863 -80.51145 3998 ft 210 kts 304°
2026-05-03 23:48 26.02973 -80.52147 4027 ft 204 kts 338°
2026-05-03 23:48 26.04290 -80.52210 4014 ft 189 kts 17°
2026-05-03 23:48 26.05321 -80.51352 4022 ft 189 kts 55°
2026-05-03 23:48 26.05892 -80.50021 4013 ft 192 kts 70°
2026-05-03 23:49 26.06296 -80.48600 4007 ft 193 kts 73°
2026-05-03 23:49 26.06643 -80.47153 4005 ft 193 kts 80°
2026-05-03 23:49 26.06762 -80.45671 4004 ft 193 kts 90°
2026-05-03 23:49 26.06761 -80.44178 4002 ft 193 kts 91°
2026-05-03 23:50 26.06750 -80.42685 3999 ft 193 kts 91°
2026-05-03 23:50 26.06741 -80.41695 4003 ft 193 kts 91°
2026-05-03 23:50 26.06726 -80.39679 3979 ft 202 kts 90°
2026-05-03 23:50 26.06719 -80.38111 3891 ft 203 kts 91°
2026-05-03 23:51 26.06710 -80.36547 3639 ft 202 kts 91°
2026-05-03 23:51 26.06701 -80.34989 3332 ft 200 kts 90°
2026-05-03 23:51 26.06695 -80.33448 3032 ft 198 kts 90°
2026-05-03 23:51 26.06684 -80.31922 2761 ft 196 kts 90°
2026-05-03 23:52 26.06673 -80.30415 2506 ft 194 kts 90°
2026-05-03 23:52 26.06665 -80.28920 2254 ft 192 kts 90°
2026-05-03 23:52 26.06656 -80.27459 2010 ft 190 kts 90°
2026-05-03 23:52 26.06648 -80.25995 1762 ft 188 kts 90°
2026-05-03 23:53 26.06639 -80.24544 1520 ft 187 kts 89°
2026-05-03 23:53 26.06630 -80.23126 1273 ft 178 kts 88°
2026-05-03 23:53 26.06622 -80.21794 1070 ft 168 kts 89°
2026-05-03 23:53 26.06615 -80.20517 859 ft 164 kts 89°
2026-05-03 23:54 26.06607 -80.19261 627 ft 158 kts 89°
2026-05-03 23:54 26.06583 -80.18058 407 ft 157 kts 87°
2026-05-03 23:54 26.06587 -80.16833 232 ft 160 kts 88°
2026-05-03 23:54 26.06584 -80.15605 49 ft 155 kts 87°
2026-05-03 23:55 26.06573 -80.14511 25 ft 127 kts 88°
2026-05-03 23:55 26.06579 -80.13917 24 ft 30 kts 88°
2026-05-03 23:55 26.06639 -80.13774 27 ft 18 kts 46°
2026-05-03 23:55 26.06701 -80.13709 30 ft 0 kts 11°
2026-05-03 23:56 26.06732 -80.13730 29 ft 11 kts 304°
2026-05-03 23:56 26.06742 -80.13818 29 ft 12 kts 272°
2026-05-03 23:56 26.06743 -80.13920 29 ft 14 kts 271°
2026-05-03 23:57 26.06727 -80.14029 27 ft 16 kts 254°
2026-05-03 23:57 26.06691 -80.14149 22 ft 17 kts 265°
2026-05-03 23:57 26.06692 -80.14288 22 ft 19 kts 270°
2026-05-03 23:57 26.06693 -80.14442 21 ft 21 kts 270°
2026-05-03 23:58 26.06694 -80.14612 20 ft 23 kts 269°
2026-05-03 23:58 26.06693 -80.14787 23 ft 23 kts 270°
2026-05-03 23:58 26.06733 -80.14920 27 ft 15 kts 348°
2026-05-03 23:58 26.06766 -80.14864 25 ft 0 kts 89°
2026-05-04 00:00 26.06767 -80.14797 23 ft 18 kts 90°
2026-05-04 00:00 26.06858 -80.14723 21 ft 23 kts 322°
2026-05-04 00:00 26.06924 -80.14782 22 ft 10 kts 354°
2026-05-04 00:00 26.06989 -80.14767 22 ft 12 kts 322°
2026-05-04 00:01 26.07091 -80.14864 25 ft 20 kts 330°
2026-05-04 00:01 26.07151 -80.14836 27 ft 14 kts 51°
2026-05-04 00:01 26.07220 -80.14727 26 ft 6 kts 87°
2026-05-04 00:01 26.07206 -80.14673 24 ft 5 kts 153°
2026-05-04 00:02 26.07167 -80.14687 25 ft 6 kts 206°
2026-05-04 00:02 26.07155 -80.14689 23 ft 1 kts 176°
2026-05-04 00:02 26.07143 -80.14688 24 ft 0 kts 178°